Temp
81 93 97 94 77 79 74 80 92 75 77 87 95 98 89 91 85 75 101 100 95 90 84 84 80 80 80 80 79 79 79 79 79 79 79 79 79 80 80 80 80 81 81 81 81 81 81 81 81
88 93 95 88 73 69 75 88 87 80 75 79 85 99 91 85 95 95 97 97 95 89 86 84 79 80 80 80 79 79 79 79 79 79 79 79 79 80 80 80 80 81 81 81 81 81 81 81 81
84 91 83 79 73 70 75 90 93 80 76 75 86 99 93 88 96 97 99 97 94 90 90 82 79 79 80 79 79 79 79 79 79 79 79 79 79 79 79 80 80 81 81 81 81 81 81 81 81
88 88 86 73 72 80 82 90 95 86 89 98 99 87 96 101 99 99 100 98 94 93 90 79 79 79 79 79 79 79 79 79 79 79 79 79 79 79 79 80 80 81 81 81 81 81 81 81 80
88 85 73 72 74 83 90 93 97 93 93 98 98 87 89 100 102 101 98 98 95 95 87 82 79 79 79 79 79 79 79 79 79 79 79 79 79 79 79 80 80 81 81 81 81 81 80 80 79
78 82 69 69 75 84 90 97 98 94 97 99 85 75 87 101 99 100 100 98 99 92 86 82 79 78 79 79 79 78 78 78 79 79 79 79 79 79 79 80 80 80 80 80 80 80 79 79 79
76 74 69 73 77 81 88 98 96 94 95 97 90 74 89 96 100 101 100 100 99 92 89 84 83 80 79 78 78 78 78 78 78 78 78 79 79 79 79 79 80 80 80 80 80 79 79 79 78
81 78 71 75 76 79 92 95 100 97 94 106 103 77 78 95 100 101 102 101 97 94 90 87 84 85 82 81 78 78 78 78 78 78 78 78 79 79 79 79 79 79 79 79 79 79 79 78 77
87 71 68 73 76 82 93 92 99 102 97 100 82 77 72 89 100 99 99 98 96 94 90 90 89 87 87 86 81 79 79 79 78 79 78 78 81 81 82 81 81 79 79 79 79 78 78 77 77
77 71 71 81 85 85 91 91 96 94 94 94 70 77 75 72 93 94 95 94 93 92 91 92 90 88 89 90 81 82 83 82 81 82 79 80 81 82 88 84 79 79 79 79 78 78 78 78 79
77 71 78 82 86 90 90 90 94 87 87 94 67 72 74 79 91 94 96 96 95 94 94 93 87 86 91 90 83 86 85 84 83 83 81 80 85 86 86 82 82 79 78 80 80 79 78 81 83
71 78 80 84 87 87 86 92 89 89 89 100 97 81 79 85 90 93 96 96 96 94 93 93 90 86 88 89 86 87 87 86 85 85 83 82 83 84 84 84 84 81 81 80 81 82 82 80 85
73 77 81 84 87 88 90 87 89 86 94 98 101 95 91 90 91 93 94 95 96 92 92 91 88 86 87 85 87 86 85 87 88 86 86 85 83 82 84 84 85 84 84 84 82 82 82 83 84
77 78 80 83 83 86 84 87 88 86 93 94 85 83 84 89 89 87 88 86 85 86 86 88 87 86 88 87 87 87 88 87 89 87 86 86 85 83 84 83 82 82 84 85 84 83 82 81 82
78 73 77 80 82 81 86 80 81 90 92 92 77 70 67 70 90 88 89 83 83 84 83 83 85 87 86 88 87 85 87 90 88 88 87 87 84 84 84 82 83 84 84 86 84 83 82 80 82
71 72 65 76 80 82 82 71 83 90 91 90 69 71 70 71 88 88 89 87 86 86 83 85 90 87 85 86 86 85 87 86 88 88 86 88 87 87 84 83 82 85 84 84 83 82 82 81 81
67 59 64 70 80 80 79 72 83 90 90 88 90 69 67 82 88 85 89 89 87 87 85 84 85 86 85 84 85 87 84 85 86 87 87 86 87 86 83 81 81 82 81 80 79 78 75 73 76
58 61 66 66 75 78 76 75 82 87 89 86 89 89 77 82 84 84 90 90 88 86 84 82 83 82 82 82 82 83 84 84 85 86 85 83 83 82 81 80 80 81 78 76 75 75 76 75 75
67 65 64 70 77 75 74 75 79 85 87 84 83 90 83 73 81 92 89 88 87 84 83 83 81 80 81 79 79 79 81 83 82 82 85 85 82 80 79 80 79 79 77 77 76 75 73 74 76
66 65 65 72 77 76 74 73 80 82 84 86 84 68 65 65 67 65 82 86 84 82 82 81 82 80 80 80 80 84 83 83 83 81 80 82 81 79 79 77 77 77 77 74 74 74 72 73 74
64 63 65 66 73 76 73 69 74 81 82 85 71 69 63 61 62 65 65 78 82 81 80 80 80 80 81 81 81 81 81 82 79 78 78 78 79 78 76 75 73 73 73 71 71 70 68 67 71
58 70 67 69 66 59 73 58 69 77 74 81 68 63 65 61 62 64 69 80 80 82 83 81 81 80 82 82 79 79 80 78 79 77 76 75 77 77 77 74 73 71 72 69 69 71 68 67 66
62 70 66 68 64 66 64 62 67 76 68 72 69 63 62 63 62 62 82 82 83 83 83 82 81 80 81 81 81 80 76 78 74 76 73 72 74 75 76 74 73 71 71 70 70 68 66 68 66
72 67 66 65 65 48 60 61 64 70 70 74 77 69 69 67 66 68 83 83 82 84 83 81 79 79 80 80 81 79 76 73 73 73 72 73 72 73 75 75 73 72 71 70 69 68 66 66 66
69 60 48 48 46 43 60 59 66 75 78 80 79 76 73 73 76 83 83 83 81 81 81 79 78 78 79 80 78 77 75 74 73 73 74 73 73 72 71 73 71 71 70 70 68 66 65 65 64
64 61 50 41 36 48 60 54 66 79 84 86 85 83 83 82 85 85 87 84 83 81 80 81 80 79 80 78 77 75 74 75 75 75 75 73 73 72 73 73 72 72 72 70 69 66 66 64 65
63 59 68 59 57 51 56 63 74 81 80 79 84 86 81 83 81 84 86 87 84 83 81 81 80 78 78 76 74 73 75 74 72 74 74 73 71 75 73 73 72 71 71 70 68 65 64 64 63
67 73 59 60 47 46 57 59 62 68 73 77 78 73 84 84 86 87 86 86 86 83 81 80 80 78 77 76 75 75 73 74 74 72 71 71 72 72 72 72 71 70 69 69 67 65 64 63 63
62 57 63 64 61 50 49 55 75 70 74 74 77 74 81 85 88 88 89 85 86 85 83 79 79 77 76 76 75 74 74 75 74 72 72 71 72 71 71 70 70 69 68 66 64 63 63 62 60
68 61 59 49 44 55 59 52 69 79 80 79 81 83 86 88 88 89 89 88 85 83 81 79 77 78 78 77 75 74 74 73 71 70 70 71 70 70 69 69 68 68 67 64 63 62 62 60 57
MSLP
1008.88 1007.83 1006.81 1005.59 1004.81 1002.55 1000.26 999.17 997.84 1000.47 1000.84 999.44 996.46 996.08 997.05 997.71 998.12 1000.03 1001.44 1002.54 1004.40 1006.24 1007.54 1008.19 1008.73 1009.22 1009.71 1010.23 1010.67 1011.17 1011.66 1012.04 1012.40 1012.88 1013.27 1013.59 1013.79 1014.10 1014.31 1014.49 1014.60 1014.66 1014.74 1014.84 1014.92 1015.14 1015.16 1015.23 1015.31
1008.69 1007.46 1006.07 1004.89 1003.57 1001.23 999.09 998.28 997.84 999.69 1000.96 1000.09 998.72 996.91 997.35 998.64 998.90 1000.26 1001.57 1003.22 1004.76 1006.26 1007.33 1008.31 1009.03 1009.49 1009.95 1010.41 1010.93 1011.44 1011.85 1012.20 1012.59 1013.14 1013.62 1013.90 1014.03 1014.28 1014.47 1014.57 1014.70 1014.77 1014.83 1014.97 1015.12 1015.29 1015.40 1015.42 1015.53
1009.04 1007.77 1006.12 1004.06 1002.53 1000.46 998.46 996.99 996.92 998.91 999.31 1002.47 999.68 997.47 997.94 999.14 999.83 1000.17 1001.90 1003.41 1005.16 1006.29 1007.12 1008.39 1009.15 1009.68 1010.18 1010.67 1011.20 1011.66 1012.07 1012.44 1012.86 1013.36 1013.68 1014.07 1014.25 1014.54 1014.66 1014.77 1014.87 1014.94 1015.02 1015.05 1015.28 1015.41 1015.48 1015.60 1015.64
1007.77 1006.60 1005.54 1002.88 1000.88 999.85 998.29 996.39 996.37 998.40 997.81 997.02 996.79 998.19 998.58 998.85 999.28 1000.42 1002.00 1003.58 1005.04 1006.13 1007.17 1008.63 1009.22 1009.83 1010.45 1010.96 1011.43 1011.85 1012.29 1012.68 1013.11 1013.38 1013.76 1014.08 1014.42 1014.68 1014.80 1014.78 1014.90 1015.06 1015.15 1015.25 1015.43 1015.55 1015.62 1015.65 1015.69
1007.23 1005.41 1003.77 1002.02 1000.50 999.17 997.43 996.47 996.00 995.96 996.92 995.89 996.63 998.75 999.42 999.43 1000.01 1000.75 1002.00 1003.43 1004.51 1005.82 1007.50 1008.72 1009.40 1010.03 1010.65 1011.17 1011.60 1012.06 1012.48 1012.85 1013.18 1013.49 1013.71 1014.07 1014.42 1014.77 1014.94 1014.93 1015.04 1015.16 1015.17 1015.29 1015.35 1015.45 1015.52 1015.62 1015.65
1006.08 1005.00 1002.94 1001.09 999.80 998.68 997.04 995.80 995.37 995.72 995.48 995.16 997.82 1000.19 1001.25 1000.66 1001.13 1001.33 1002.15 1003.16 1004.26 1005.76 1007.55 1008.86 1009.64 1010.11 1010.78 1011.30 1011.72 1012.16 1012.52 1012.91 1013.28 1013.57 1013.88 1014.15 1014.53 1014.82 1014.91 1014.96 1015.00 1015.07 1015.16 1015.22 1015.28 1015.34 1015.37 1015.41 1015.45
1004.91 1003.80 1002.13 1000.87 999.30 997.83 996.59 995.30 994.69 995.33 995.40 995.25 997.79 1002.51 1002.01 1001.77 1002.05 1002.05 1002.49 1003.12 1004.24 1006.02 1007.48 1008.71 1009.60 1010.30 1010.86 1011.49 1011.79 1012.15 1012.62 1012.97 1013.37 1013.70 1014.04 1014.32 1014.59 1014.75 1014.92 1014.98 1015.04 1015.10 1015.18 1015.21 1015.24 1015.25 1015.27 1015.18 1015.08
1004.70 1003.67 1002.14 1000.66 999.06 996.94 996.07 995.28 994.46 994.90 995.24 995.47 996.99 1000.46 1001.36 1002.06 1002.10 1002.44 1002.69 1003.36 1004.48 1006.16 1007.47 1008.54 1009.41 1010.16 1010.85 1011.53 1012.04 1012.45 1012.82 1013.13 1013.53 1013.81 1014.03 1014.27 1014.52 1014.71 1014.88 1014.95 1014.94 1014.97 1015.09 1015.07 1015.06 1014.99 1014.98 1015.06 1014.96
1004.52 1003.30 1001.06 999.67 998.65 996.95 995.92 995.10 994.73 995.33 995.76 996.59 999.95 1002.50 1004.05 1003.06 1002.29 1002.38 1002.71 1003.47 1004.67 1005.97 1007.50 1008.17 1008.98 1009.90 1010.36 1011.15 1011.92 1012.45 1012.90 1013.24 1013.47 1013.80 1014.02 1014.27 1014.26 1014.30 1014.36 1014.52 1014.45 1014.71 1014.81 1014.82 1014.91 1014.89 1014.85 1014.78 1014.59
1003.43 1001.91 999.80 999.62 998.48 997.40 996.23 995.33 995.20 995.96 996.18 997.65 1001.76 1003.03 1004.13 1005.98 1003.36 1002.36 1002.42 1003.15 1004.45 1005.49 1006.96 1007.85 1008.40 1009.34 1009.70 1010.51 1011.82 1012.10 1012.69 1013.14 1013.39 1013.51 1013.85 1013.97 1013.67 1013.52 1013.49 1013.76 1014.11 1014.24 1014.32 1014.54 1014.61 1014.49 1014.43 1014.40 1014.06
1002.40 1000.59 1000.31 999.45 998.63 997.70 996.68 996.05 995.07 997.09 996.84 997.21 1001.12 1002.92 1003.34 1004.55 1003.61 1002.33 1002.34 1002.90 1003.80 1005.22 1006.13 1007.30 1008.05 1008.87 1009.19 1009.88 1011.32 1011.71 1012.06 1012.53 1012.89 1012.98 1013.40 1013.48 1013.16 1012.96 1013.00 1013.47 1013.67 1013.88 1014.02 1014.06 1013.77 1013.90 1014.09 1013.70 1013.38
1002.48 1001.12 1000.25 999.43 998.77 998.01 997.00 996.57 997.30 997.96 997.44 996.96 998.58 1001.03 1003.19 1002.41 1002.43 1001.74 1002.14 1002.71 1003.54 1005.09 1005.77 1006.68 1007.86 1008.56 1008.73 1009.47 1010.62 1010.96 1011.16 1011.62 1012.09 1012.30 1012.71 1012.81 1012.85 1012.72 1012.72 1012.81 1013.03 1013.27 1013.12 1013.20 1012.96 1013.16 1013.02 1013.13 1012.54
1001.69 1000.43 1000.40 999.83 998.87 998.17 997.47 996.86 996.79 997.99 997.67 997.64 997.25 998.89 1000.99 1001.72 1001.51 1001.69 1001.95 1002.61 1003.65 1005.18 1005.95 1006.48 1007.85 1008.55 1008.72 1009.41 1009.86 1010.21 1010.49 1010.84 1011.08 1011.59 1012.06 1012.47 1012.61 1012.78 1012.64 1012.70 1012.67 1012.62 1012.55 1012.57 1012.52 1012.46 1012.45 1012.42 1012.32
1001.28 1000.79 1000.06 999.73 999.16 998.31 997.58 996.90 996.80 997.51 997.54 998.44 998.64 1000.39 1001.40 1001.47 1001.43 1001.70 1002.23 1003.22 1004.47 1005.45 1006.33 1006.79 1008.09 1008.82 1009.04 1009.03 1009.37 1009.80 1009.81 1010.18 1010.49 1011.04 1011.59 1012.01 1012.24 1012.53 1012.65 1012.74 1012.89 1012.77 1012.53 1012.37 1012.26 1012.39 1012.51 1012.40 1012.33
1001.28 1000.54 1000.14 999.43 999.07 998.50 997.95 997.18 996.96 997.47 997.85 997.91 999.79 1001.68 1002.34 1004.01 1001.82 1001.37 1001.76 1002.87 1004.61 1005.53 1005.33 1006.62 1007.96 1008.75 1009.32 1009.52 1009.56 1009.87 1010.15 1010.35 1010.68 1010.94 1011.28 1011.73 1012.15 1012.46 1012.61 1012.83 1012.71 1012.39 1012.20 1012.10 1012.21 1012.26 1012.10 1012.08 1011.94
1001.36 1000.75 999.56 999.12 998.90 998.50 998.21 997.14 997.24 997.57 997.50 998.08 1000.24 1001.93 1002.82 1001.91 1001.59 1000.54 1000.94 1001.88 1003.82 1004.54 1005.22 1006.72 1007.58 1008.71 1009.46 1009.82 1010.04 1010.30 1010.31 1010.64 1010.73 1011.00 1011.35 1011.70 1012.14 1012.43 1012.60 1012.84 1012.73 1012.20 1012.06 1012.08 1012.33 1012.20 1011.81 1011.87 1011.54
1000.98 999.77 999.11 998.62 998.73 998.38 997.84 997.44 997.44 997.38 997.07 997.53 998.20 1001.04 1002.06 1000.50 1000.00 1001.37 1001.64 1001.38 1002.55 1003.55 1004.86 1006.70 1007.31 1008.28 1009.23 1009.82 1010.18 1010.41 1010.64 1011.03 1010.97 1011.06 1011.17 1011.53 1011.86 1012.14 1012.50 1012.84 1012.60 1012.45 1012.52 1012.62 1012.71 1012.69 1012.64 1013.08 1012.13
999.50 999.25 998.52 998.23 998.28 998.04 997.39 997.37 997.23 996.96 996.73 997.66 998.18 998.39 998.45 999.04 1001.88 1002.28 1000.29 1001.57 1001.21 1003.46 1005.40 1006.42 1007.39 1008.17 1008.34 1009.21 1009.66 1010.27 1010.60 1011.21 1010.96 1010.81 1011.41 1011.72 1012.00 1012.28 1012.49 1012.66 1012.76 1012.72 1013.16 1013.22 1013.28 1013.37 1012.96 1012.78 1012.42
999.72 998.93 998.04 997.76 997.53 997.59 997.22 997.13 997.02 996.93 996.78 997.74 998.42 998.82 1000.37 1003.59 1004.19 1001.83 1000.89 1000.37 1001.73 1003.75 1005.59 1006.57 1007.06 1008.03 1008.18 1009.57 1009.45 1010.29 1010.37 1010.55 1011.38 1011.22 1011.44 1011.76 1012.28 1012.71 1013.01 1013.19 1013.30 1013.27 1013.56 1013.74 1013.95 1013.84 1013.64 1013.15 1012.87
999.63 998.61 998.06 997.48 997.39 997.24 997.49 997.01 996.83 996.66 996.82 997.91 999.22 1002.34 1003.85 1005.19 1004.20 1003.48 1001.42 1002.69 1002.21 1003.82 1005.89 1006.79 1006.98 1007.64 1008.46 1008.40 1008.71 1009.72 1009.98 1010.51 1011.02 1011.85 1012.23 1012.44 1012.67 1013.12 1013.32 1013.61 1013.75 1013.75 1013.92 1014.23 1014.17 1014.08 1014.06 1013.81 1013.44
999.39 998.29 997.99 997.72 997.47 997.42 997.62 997.47 996.90 996.89 997.95 998.57 1000.50 1001.71 1004.69 1007.31 1006.38 1005.04 1004.34 1003.12 1003.70 1004.17 1006.12 1006.66 1007.02 1007.65 1008.09 1008.15 1008.71 1009.15 1010.05 1010.73 1011.33 1012.27 1013.00 1013.23 1013.47 1013.71 1013.95 1014.01 1014.19 1014.25 1014.39 1014.70 1014.65 1014.82 1014.90 1014.64 1014.01
999.01 998.60 998.55 998.00 997.56 997.09 997.73 996.76 996.69 997.04 998.12 998.93 1000.86 1002.74 1004.86 1006.68 1008.48 1009.48 1006.79 1004.54 1003.75 1004.37 1006.09 1006.88 1007.10 1007.65 1008.00 1008.18 1008.76 1009.44 1009.81 1010.57 1011.52 1012.58 1013.39 1013.77 1013.85 1014.08 1014.29 1014.36 1014.47 1014.64 1014.77 1014.97 1015.14 1015.21 1015.26 1015.05 1014.71
999.08 999.05 999.33 998.59 998.37 997.84 997.88 996.90 996.30 996.77 997.88 999.38 1001.51 1003.58 1005.34 1006.88 1009.01 1006.98 1005.15 1005.54 1004.74 1005.32 1005.82 1007.09 1007.19 1007.45 1008.18 1008.56 1008.91 1009.48 1010.19 1011.08 1012.15 1012.93 1013.71 1014.09 1014.21 1014.29 1014.36 1014.48 1014.68 1015.04 1015.17 1015.29 1015.31 1015.37 1015.34 1015.09 1015.04
999.05 999.60 999.30 999.20 998.55 998.72 997.88 997.62 995.48 995.89 997.10 998.84 1000.33 1003.09 1004.58 1006.50 1007.75 1007.05 1004.35 1005.05 1005.41 1005.24 1006.04 1007.05 1007.18 1007.55 1008.50 1008.73 1008.83 1009.59 1010.38 1011.38 1012.31 1013.12 1013.69 1014.06 1014.23 1014.48 1014.50 1014.70 1014.85 1015.04 1015.31 1015.36 1015.45 1015.51 1015.46 1015.26 1015.12
998.51 998.97 998.81 999.21 999.04 999.67 999.23 997.70 995.38 995.67 996.09 996.98 998.78 1001.02 1002.37 1003.03 1004.26 1003.94 1004.05 1003.99 1004.63 1005.38 1006.07 1007.23 1007.52 1007.53 1008.51 1008.88 1009.34 1010.03 1010.72 1011.55 1012.29 1012.75 1013.13 1013.48 1014.05 1014.59 1014.88 1014.96 1015.08 1015.22 1015.20 1015.25 1015.37 1015.50 1015.46 1015.27 1015.22
998.32 998.45 998.83 998.63 1000.63 999.34 999.01 997.38 994.91 994.90 994.91 995.56 996.99 998.29 999.54 1000.52 1000.96 1001.84 1002.54 1003.13 1003.68 1004.52 1005.78 1006.93 1007.20 1007.98 1008.54 1009.15 1009.71 1010.62 1011.23 1011.76 1012.40 1012.77 1013.02 1013.49 1013.87 1014.51 1014.89 1015.03 1015.03 1015.01 1015.02 1015.01 1015.16 1015.40 1015.33 1015.29 1015.10
997.93 997.60 997.69 997.74 999.22 999.28 998.34 997.73 995.33 994.27 994.80 995.74 995.87 996.74 998.34 999.19 1000.36 1001.12 1001.22 1002.30 1003.33 1004.50 1005.75 1006.35 1007.43 1008.35 1008.94 1009.68 1010.48 1011.03 1011.36 1011.82 1012.71 1013.17 1013.47 1014.01 1014.44 1014.66 1014.94 1014.98 1015.03 1015.07 1015.12 1015.22 1015.26 1015.22 1015.18 1015.16 1015.07
997.39 997.16 997.15 997.18 997.41 997.27 996.19 995.49 994.35 994.63 995.28 995.56 996.11 997.34 996.99 998.09 999.15 999.83 1000.41 1001.92 1002.78 1004.00 1005.35 1006.60 1007.64 1008.68 1009.81 1010.48 1010.81 1011.23 1011.80 1012.55 1013.16 1013.76 1014.18 1014.57 1014.91 1015.07 1015.11 1015.10 1015.21 1015.28 1015.30 1015.35 1015.26 1015.20 1015.10 1015.06 1014.87
998.20 998.53 997.70 998.07 998.19 997.76 996.52 995.68 994.00 994.50 995.29 995.86 996.58 998.48 998.04 997.24 998.04 998.85 999.90 1001.26 1002.35 1003.80 1005.08 1006.57 1007.82 1009.16 1010.42 1010.85 1011.03 1011.53 1012.34 1013.04 1013.63 1014.19 1014.65 1015.06 1015.17 1015.26 1015.20 1015.27 1015.30 1015.31 1015.40 1015.41 1015.30 1015.16 1015.03 1014.91 1014.79
998.28 998.84 999.07 998.94 999.80 999.20 996.78 997.48 995.28 993.60 994.88 995.75 996.52 997.12 997.30 997.56 998.19 999.11 999.93 1000.80 1002.24 1003.79 1005.22 1006.57 1008.01 1009.48 1010.64 1011.09 1011.49 1012.24 1012.87 1013.58 1014.16 1014.71 1015.14 1015.37 1015.48 1015.48 1015.46 1015.48 1015.45 1015.49 1015.51 1015.46 1015.47 1015.37 1015.23 1015.08 1015.15
Wind_Speed
15 16 12 11 8 9 18 19 23 14 8 11 12 15 21 16 10 14 17 24 25 20 16 16 16 16 17 17 17 16 15 15 14 13 12 11 11 10 10 9 8 8 8 7 7 6 6 6 6
11 17 10 7 11 14 16 22 25 15 10 19 31 5 23 18 18 20 17 25 23 20 14 15 15 16 16 17 16 15 15 15 14 13 11 10 10 9 9 8 7 7 7 6 5 4 4 4 4
13 15 9 8 15 18 19 20 12 20 29 26 32 14 11 17 20 17 22 25 22 18 16 15 16 16 16 16 16 15 15 14 14 13 13 10 9 8 7 7 7 6 5 4 3 3 3 3 4
8 7 9 13 20 24 28 24 12 20 29 21 8 15 15 17 18 22 25 25 21 20 18 17 17 16 16 15 16 15 14 14 14 14 12 11 9 8 7 7 6 5 4 3 2 2 3 3 3
11 9 11 17 24 24 24 26 15 17 16 12 17 14 14 13 24 24 24 21 20 19 18 16 17 16 16 15 15 15 14 13 13 13 13 11 10 8 6 6 5 3 4 3 2 0 2 3 4
10 12 15 19 23 25 26 26 13 7 19 8 17 16 2 15 22 22 22 20 20 20 17 15 16 16 15 15 15 14 14 14 13 13 11 10 9 7 6 6 5 5 3 3 2 2 3 4 6
17 15 20 24 23 24 27 27 16 12 17 11 34 34 10 16 19 19 19 19 20 21 17 13 14 13 14 13 14 14 13 13 12 11 10 9 9 8 7 6 5 4 4 4 4 5 6 7 8
16 16 25 23 22 26 25 27 17 12 14 6 4 5 15 18 21 19 20 20 21 18 18 15 13 13 11 11 12 11 11 11 10 10 10 9 9 8 7 7 7 7 6 6 7 8 9 9 11
22 17 19 29 29 28 25 25 22 9 17 2 12 10 5 12 16 20 19 19 18 17 15 15 16 13 12 11 11 11 12 11 11 9 9 8 6 9 10 10 9 11 10 9 9 10 10 11 14
22 19 32 25 24 25 29 23 21 13 21 5 23 20 17 20 11 18 19 19 20 20 19 15 16 14 14 11 10 9 9 7 7 7 8 6 8 7 8 9 14 14 13 11 12 13 13 12 8
26 27 25 27 27 27 26 24 29 12 20 13 30 25 25 22 20 17 18 18 19 18 15 16 13 12 13 12 8 6 6 6 6 9 8 8 6 4 4 5 6 6 11 6 10 9 8 11 8
25 30 29 25 27 25 26 24 18 23 27 14 20 40 31 31 21 19 18 18 18 18 17 18 16 11 8 11 9 8 8 8 7 8 10 4 3 3 1 3 6 6 5 9 7 5 9 10 3
28 29 27 28 25 26 25 25 16 30 33 29 12 28 27 20 17 13 12 13 15 13 12 15 11 6 4 11 8 7 6 8 9 8 7 5 4 4 4 3 3 3 3 3 4 4 4 5 5
26 25 27 25 27 25 28 24 18 25 28 21 21 11 7 18 18 13 10 11 12 11 11 11 11 5 3 3 5 3 2 3 3 6 8 7 3 3 2 2 3 5 4 4 3 3 3 3 3
24 26 23 26 25 29 27 21 24 16 22 32 24 15 11 33 21 19 18 13 13 11 13 11 12 9 5 2 3 4 3 2 1 2 7 6 5 4 2 4 4 3 3 3 2 4 5 5 5
25 24 22 25 26 29 28 21 24 22 19 28 27 22 16 24 14 19 20 21 19 15 11 10 11 12 8 4 3 3 4 2 2 2 5 4 2 2 2 3 5 4 3 2 3 5 6 3 4
22 21 27 25 29 24 29 20 25 23 24 14 17 29 32 34 27 17 22 21 18 14 16 13 8 13 10 6 5 2 6 2 1 2 3 7 6 6 5 4 5 5 4 5 7 8 6 5 8
26 29 26 26 27 27 25 21 21 24 24 14 18 13 4 10 20 22 22 21 21 19 14 12 7 13 12 8 7 4 5 5 5 4 5 6 6 10 7 4 5 5 4 5 7 7 7 6 7
23 25 26 26 26 28 25 23 22 23 20 16 19 17 21 27 17 13 19 20 17 18 17 14 12 14 9 6 4 3 5 6 4 6 6 5 9 8 6 5 4 4 4 4 5 5 7 7 8
27 27 26 24 27 26 26 24 23 19 18 18 18 13 21 22 7 11 9 18 19 16 15 14 11 11 6 8 7 5 3 5 7 7 8 7 7 4 3 5 6 6 5 7 6 6 5 4 5
29 25 25 28 27 22 23 29 25 20 20 22 9 12 14 17 17 16 28 9 17 17 14 13 12 10 6 5 5 7 5 4 7 7 7 6 7 7 6 6 5 6 6 6 6 7 8 6 8
23 25 19 31 22 18 27 18 21 23 21 20 10 12 10 16 7 16 15 10 12 15 13 13 13 11 7 7 6 7 4 4 6 8 7 5 6 6 6 6 6 7 5 6 5 6 5 5 7
19 21 26 27 18 24 23 19 21 23 20 17 21 18 19 18 12 23 18 9 8 10 13 10 12 11 6 5 6 5 8 8 8 8 7 6 5 5 6 6 6 6 4 5 5 5 6 4 4
21 20 23 22 13 17 20 23 17 20 22 27 17 24 24 22 19 29 16 14 12 11 11 10 10 8 8 4 4 7 10 9 9 8 7 6 5 4 5 6 4 4 4 4 4 5 7 7 5
19 18 7 13 5 9 22 19 14 21 28 26 22 29 27 26 25 15 12 16 13 14 13 11 11 11 10 8 11 9 11 11 9 8 5 6 5 5 4 4 4 3 3 4 4 4 7 5 6
19 15 9 12 6 15 17 16 24 20 22 20 25 26 23 17 15 20 15 16 16 15 14 13 12 12 11 11 11 10 11 6 5 3 4 5 5 6 4 3 3 3 4 4 4 3 4 6 5
16 17 21 13 22 13 14 26 23 18 12 8 17 18 26 21 11 22 21 18 15 15 12 12 13 12 12 12 9 9 5 7 8 6 6 5 6 4 4 3 3 4 5 5 5 3 5 5 5
16 13 17 9 12 15 14 19 14 19 15 14 9 12 16 19 17 12 13 17 16 16 13 13 14 13 12 11 9 8 10 9 7 7 7 6 4 4 4 4 5 5 5 6 5 5 6 7 7
13 8 9 15 8 10 8 11 13 22 20 17 16 16 26 17 14 12 8 14 18 17 16 15 14 14 10 8 9 9 9 8 7 6 6 5 3 5 5 5 5 5 6 6 6 6 8 9 9
17 19 20 2 9 8 9 3 21 17 14 12 11 8 6 4 9 10 9 6 19 18 18 16 15 13 10 9 9 9 8 8 6 6 5 4 4 4 6 6 7 8 8 7 8 10 9 9 10
Wind_Direction
287 269 254 265 254 232 254 248 256 157 209 316 315 62 76 46 47 101 133 111 121 129 127 127 126 130 130 128 130 133 129 125 123 122 121 118 109 104 97 93 94 100 100 96 96 90 86 79 72
286 290 268 269 240 249 246 246 256 96 46 326 288 82 77 74 101 124 121 119 125 127 140 132 128 128 131 133 132 132 131 128 126 124 119 117 112 112 110 111 111 110 108 99 94 86 75 71 48
260 260 270 232 238 242 256 243 229 131 110 226 246 60 79 113 121 124 117 121 128 135 134 127 129 132 136 136 133 133 131 129 126 125 124 123 119 117 119 111 110 114 112 111 93 78 68 39 21
246 224 248 251 236 231 250 266 330 174 179 197 154 93 110 131 124 121 126 128 136 143 129 135 135 134 136 137 135 132 132 129 129 133 131 131 130 131 130 122 116 116 111 100 67 31 5 352 341
238 260 229 233 241 250 248 253 257 251 280 182 146 138 113 110 122 133 129 137 140 138 126 136 134 135 138 137 134 133 132 134 137 140 139 144 142 140 131 122 121 127 125 127 139 245 324 316 307
219 227 241 230 235 235 252 250 232 213 255 198 88 54 58 123 137 140 137 144 142 124 136 138 134 134 137 139 137 137 139 142 144 145 147 144 143 147 146 147 153 154 160 173 197 224 247 264 273
233 217 232 244 231 241 239 254 227 185 254 238 135 150 148 139 144 140 142 143 129 124 132 139 140 131 128 136 141 144 148 145 148 146 140 142 152 162 174 172 174 174 182 203 227 242 250 250 252
227 243 236 238 248 238 235 244 260 193 240 232 9 127 145 151 149 146 148 140 129 137 139 144 144 148 147 148 142 141 142 143 146 146 150 158 169 181 190 196 209 199 207 220 230 234 243 253 254
227 234 236 234 228 241 248 226 246 206 244 250 71 94 59 326 152 157 152 145 139 144 146 150 152 152 158 151 150 141 150 151 154 162 165 169 201 187 201 212 209 198 211 222 237 245 248 250 256
223 225 230 231 243 238 250 259 225 212 231 178 100 100 91 292 189 171 157 155 149 148 158 156 154 160 163 157 144 160 160 173 185 182 178 216 223 198 212 205 179 197 206 220 235 240 243 253 257
224 233 228 237 243 255 252 257 277 304 263 209 140 146 155 202 212 177 166 159 155 149 159 156 151 166 171 139 155 171 158 175 193 189 169 212 244 196 197 162 196 203 213 225 222 228 230 238 243
228 233 241 233 244 250 259 271 216 247 270 223 185 163 178 193 188 172 170 157 156 152 161 152 149 173 185 134 159 180 172 180 184 194 180 212 207 284 287 259 204 199 167 207 235 203 220 223 280
231 233 232 247 246 247 255 257 228 214 260 281 237 155 170 175 181 167 148 148 149 137 132 127 129 159 194 146 162 185 183 183 189 171 166 193 221 231 204 242 309 326 325 244 226 227 248 258 247
230 236 241 229 245 251 247 247 251 195 236 261 104 110 173 177 180 142 142 125 119 126 124 128 140 159 143 102 155 145 135 155 122 160 163 184 233 266 287 228 229 253 260 279 300 334 324 316 299
244 239 232 242 225 243 252 240 244 231 220 270 123 117 95 297 173 166 158 123 132 164 146 142 149 149 144 185 81 56 90 117 90 293 124 160 162 262 339 316 309 285 263 268 273 272 261 246 251
237 240 232 222 236 229 247 227 236 237 216 235 129 126 123 253 197 165 156 154 159 158 122 137 156 150 137 176 122 156 151 254 152 181 139 155 168 236 280 256 258 261 309 283 278 264 258 287 280
225 224 224 221 222 228 232 221 230 234 238 226 249 159 178 204 184 163 161 155 149 141 140 154 154 149 155 152 158 187 103 328 255 201 193 156 193 208 194 266 292 348 332 319 322 351 346 297 305
209 216 214 221 204 224 222 217 226 232 226 223 241 215 123 109 156 190 145 151 143 136 146 151 163 157 155 150 155 183 153 206 230 181 71 68 46 33 18 340 351 349 355 347 345 352 348 335 322
225 213 219 210 209 214 222 210 216 232 218 205 245 221 152 157 219 190 152 139 146 143 150 161 150 147 144 158 151 185 190 207 102 91 83 59 55 34 23 4 349 26 30 358 13 3 353 338 333
234 220 213 218 210 208 214 229 222 233 204 217 217 48 46 19 309 343 181 134 129 132 147 155 149 144 166 159 167 190 208 94 97 75 57 50 73 59 63 33 39 360 62 36 26 27 354 330 328
226 227 211 229 203 221 205 226 223 218 218 231 113 58 69 50 350 31 325 169 137 136 147 142 140 154 183 163 106 95 85 108 98 107 75 61 75 61 55 59 38 13 56 28 21 29 7 336 335
219 233 253 210 215 216 212 206 221 220 187 237 135 113 107 79 324 276 188 304 138 142 149 155 156 164 187 132 123 139 142 129 98 99 100 77 67 78 72 62 50 25 57 42 6 20 1 340 331
222 213 224 246 226 219 212 230 188 218 180 259 129 129 127 132 240 272 164 169 138 145 151 157 149 155 151 151 149 152 93 112 106 106 94 98 83 85 74 58 59 40 24 38 4 5 348 326 328
210 222 207 249 198 265 181 246 197 207 180 202 165 151 156 162 191 240 152 156 141 138 138 136 134 138 136 149 171 134 132 118 116 135 156 153 141 97 59 78 31 67 24 21 16 13 329 308 345
198 213 181 216 217 194 246 222 224 210 187 190 178 166 174 170 191 194 156 135 147 148 142 148 163 155 161 176 112 112 110 122 145 169 150 146 134 116 91 67 62 30 14 11 11 358 318 355 327
180 194 179 196 181 208 224 235 225 189 218 194 186 182 182 179 186 196 178 148 153 144 144 168 151 144 139 121 115 103 108 121 137 92 77 59 100 110 118 81 58 22 359 353 353 337 310 321 321
206 218 187 203 177 216 174 238 225 203 201 285 201 185 178 180 163 203 167 165 150 142 151 137 144 136 126 121 123 129 135 107 90 88 93 74 46 120 68 41 28 10 345 340 330 310 307 331 326
226 224 209 249 201 218 181 190 217 158 191 218 250 318 169 160 175 197 151 151 147 143 139 133 132 130 125 127 138 115 100 97 94 80 76 72 59 54 21 10 10 347 331 322 327 324 319 311 294
228 277 269 222 234 261 206 200 210 154 161 170 164 190 245 179 187 182 155 145 138 136 131 129 129 125 135 142 110 106 108 113 108 86 78 67 43 26 2 4 340 336 329 330 335 323 314 329 322
203 198 250 113 282 300 232 6 310 157 135 137 170 220 237 175 173 170 171 194 144 145 136 137 131 133 141 120 114 107 104 91 74 74 66 37 31 8 6 348 344 337 335 341 335 328 325 327 355